Regional Weather Roundup
Issued by NWS

Home | Current Version | Previous Version | Text Only | Print | Product List | Glossary Off
Versions: 1 2 3 4 5 6 7 8 9 10 11 12 13 14 15 16 17 18 19 20 21 22 23 24 25 26 27 28 29 30 31 32 33 34 35 36 37 38 39 40 41 42 43 44 45 46 47 48 49 50

356
ASUS45 KABQ 251410
RWRNM
NEW MEXICO REGIONAL WEATHER ROUNDUP
NATIONAL WEATHER SERVICE ALBUQUERQUE NM
800 AM MDT FRI MAY 25 2018

NOTE: "FAIR" MEANS FEW OR NO CLOUDS BELOW 12,000 FEET AGL WITH NO
       SIGNIFICANT WEATHER OR OBSTRUCTIONS TO VISION.

      THIS PRODUCT IS RELEASED AS TWO VERSIONS.  ONE VERSION NEAR
      THE TOP OF THE HOUR CONTAINING PRELIMINARY DATA FROM ALBUQUERQUE
      AND OTHER STATIONS.  A FINAL VERSION WITH ADDITIONAL DATA IS
      ISSUED ABOUT 10 MINUTES AFTER THE HOUR.

NMZ501-503-504-510>518-251500-
NORTHWEST PLATEAU/NORTHCENTRAL MOUNTAINS

CITY           SKY/WX    TMP DP  RH WIND       PRES   REMARKS
FARMINGTON     FAIR      56  19  23 E9        30.19S
LOS ALAMOS     FAIR      63  22  21 CALM      30.30R
SANTA FE       FAIR      63  25  23 N8        30.23R
TAOS           FAIR      57  18  21 NW5       30.31S
ANGEL FIRE     FAIR      43  29  58 CALM      30.39S

$$
NMZ402-403-502-505>509-251500-
WESTCENTRAL MOUNTAINS/SOUTHWEST MOUNTAINS

CITY           SKY/WX    TMP DP  RH WIND       PRES   REMARKS
GALLUP         FAIR      54  20  26 CALM      30.28R
GRANTS         FAIR      59  28  31 CALM      30.29S
SILVER CITY    FAIR      70  22  16 W7        30.21R

$$
NMZ407-409-411-412-251500-
SOUTHERN DESERTS

CITY           SKY/WX    TMP DP  RH WIND       PRES   REMARKS
DEMING         FAIR      67  24  19 CALM      30.14S
LAS CRUCES     FAIR      72  17  12 CALM      30.14R
HOLLOMAN AFB   FAIR      71  35  26 CALM      30.14R
ALAMOGORDO     FAIR      70  37  30 CALM      30.13R
T OR C         FAIR      73  12   9 NW14      30.15R

$$
NMZ519>523-251500-
CENTRAL VALLEYS/CENTRAL HIGHLANDS

CITY           SKY/WX    TMP DP  RH WIND       PRES   REMARKS
ALBUQUERQUE    FAIR      68  19  15 E5        30.20R
DOUBLE EAGLE   MOSUNNY   66  23  19 NE7       30.24R
MORIARTY ARPT  FAIR      60  36  40 CALM      30.25R
CLINES CORNERS FAIR      64  22  20 NW14      30.27R
BELEN          FAIR      69  20  15 W5        30.19R
SOCORRO        FAIR      67  16  14 CALM      30.17S

$$
NMZ524>526-539-540-251500-
SOUTHCENTRAL MOUNTAINS

CITY           SKY/WX    TMP DP  RH WIND       PRES   REMARKS
RUIDOSO        NOT AVBL

$$
NMZ527>531-251500-
NORTHEAST HIGHLANDS/NORTHEAST PLAINS

CITY           SKY/WX    TMP DP  RH WIND       PRES   REMARKS
LAS VEGAS      FAIR      62  30  29 N6        30.23R
RATON          FAIR      56  42  59 NE5       30.19R
CLAYTON        FAIR      71  48  43 NW17      30.07R

$$
NMZ532>537-251500-
EASTCENTRAL PLAINS

CITY           SKY/WX    TMP DP  RH WIND       PRES   REMARKS
SANTA ROSA     FAIR      67  36  31 S7        30.11R
TUCUMCARI      FAIR      73  55  53 SW10      30.03R
CANNON AFB     FAIR      70  64  83 W13       30.09S
CLOVIS AIRPORT FAIR      71  57  61 W15       30.08S

$$
NMZ028-029-538-251500-
SOUTHEAST PLAINS

CITY           SKY/WX    TMP DP  RH WIND       PRES   REMARKS
ROSWELL        FAIR      71  54  54 S5        30.06R
ARTESIA        FAIR      73  52  46 CALM      30.06R
CARLSBAD       FAIR      71  56  58 NE3       30.04R
HOBBS          SUNNY     72  61  68 S10       30.07S


$$




USA.gov is the U.S. government's official web portal to all federal, state and local government web resources and services.